Kenai, AK

11:38 PM AKDT on September 23, 2017 (GMT -0800)
Kenai Municipal

Weather History for PAEN - January, 2012

Change the Weather History Date:

Wednesday, January 11, 2012

  Actual Average Record
Temperature  
Mean Temperature 22 °F -  
Max Temperature 33 °F 18 °F 48 °F (1999)
Min Temperature 12 °F 1 °F -46 °F (1972)
Degree Days  
Heating Degree Days 42    
Moisture  
Dew Point 25 °F    
Average Humidity 95    
Maximum Humidity 100    
Minimum Humidity 86    
Precipitation  
Precipitation 0.06 in - - ()
Sea Level Pressure  
Sea Level Pressure 29.45 in    
Wind  
Wind Speed 5 mph (ESE)    
Max Wind Speed 18 mph    
Max Gust Speed -    
Visibility 7 miles    
Events Rain , Snow    
Averages and records for this station are not official NWS values.
T = Trace of Precipitation, MM = Missing Value Source: NWS Daily Summary

Daily Weather History Graph

Daily Weather History Graph

Search for Another Location

Airport or City:

Trip Planner

Search our weather history database for the weather conditions in past years. The results will help you decide how hot, cold, wet, or windy it might be!

Date:

Astronomy

Jan. 11, 2012 Rise Set
Actual Time 10:03 AM AKST 4:22 PM AKST
Civil Twilight 9:07 AM AKST 5:18 PM AKST
Nautical Twilight 8:11 AM AKST 6:14 PM AKST
Astronomical Twilight 7:20 AM AKST 7:06 PM AKST
Moon 8:39 PM AKST (1/11) 10:21 AM AKST (1/11)
Length of Visible Light 8h 11m
Length of Day
6h 19m
Waning Gibbous, 93% of the Moon is Illuminated
Jan 11
Waning Gibbous
Jan 16
Last Quarter
Jan 22
New
Jan 30
First Quarter
Feb 7
Full

Hourly Weather History & Observations

Time (AKST) Temp. Windchill Dew Point Humidity Pressure Visibility Wind Dir Wind Speed Gust Speed Precip Events Conditions
12:53 AM 15.1 °F 9.4 °F 12.9 °F 91% 29.48 in 10.0 mi NNE 3.5 mph - N/A   Partly Cloudy
1:53 AM 12.9 °F 5.2 °F 10.9 °F 92% 29.48 in 10.0 mi NE 4.6 mph - N/A   Scattered Clouds
3:53 AM 18.0 °F - 17.1 °F 96% 29.47 in 10.0 mi Calm Calm - N/A   Mostly Cloudy
4:53 AM 19.9 °F 13.4 °F 19.0 °F 96% 29.46 in 10.0 mi North 4.6 mph - N/A   Overcast
5:53 AM 21.9 °F 15.7 °F 19.9 °F 92% 29.45 in 10.0 mi NE 4.6 mph - N/A   Overcast
6:53 AM 21.9 °F 14.5 °F 21.0 °F 96% 29.44 in 10.0 mi ENE 5.8 mph - N/A   Overcast
7:53 AM 24.1 °F 17.0 °F 21.9 °F 91% 29.44 in 10.0 mi NE 5.8 mph - N/A   Overcast
8:53 AM 24.1 °F 17.0 °F 21.9 °F 91% 29.45 in 10.0 mi NE 5.8 mph - N/A   Overcast
9:53 AM 27.0 °F 21.6 °F 25.0 °F 92% 29.46 in 10.0 mi Variable 4.6 mph - 0.00 in   Overcast
10:22 AM 28.4 °F 24.6 °F 26.6 °F 93% 29.45 in 9.0 mi NNW 3.5 mph - 0.01 in Rain Light Freezing Rain
10:42 AM 30.2 °F 26.7 °F 28.4 °F 93% 29.45 in 10.0 mi NE 3.5 mph - 0.02 in Rain Light Freezing Rain
10:50 AM 30.2 °F 26.7 °F 28.4 °F 93% 29.46 in 10.0 mi ENE 3.5 mph - 0.02 in Rain Light Freezing Rain
10:53 AM 30.0 °F - 28.9 °F 96% 29.47 in 10.0 mi Calm Calm - 0.02 in Rain Light Freezing Rain
11:22 AM 30.2 °F 26.7 °F 28.4 °F 93% 29.46 in 10.0 mi ENE 3.5 mph - 0.01 in Rain Light Freezing Rain
11:40 AM 28.4 °F 23.3 °F 28.4 °F 100% 29.46 in 10.0 mi NE 4.6 mph - 0.01 in   Overcast
11:53 AM 30.0 °F 24.1 °F 28.0 °F 92% 29.47 in 10.0 mi NE 5.8 mph - 0.01 in   Overcast
12:53 PM 32.0 °F 26.4 °F 30.9 °F 96% 29.47 in 10.0 mi East 5.8 mph - N/A   Overcast
1:53 PM 33.1 °F 28.7 °F 32.0 °F 96% 29.46 in 10.0 mi NE 4.6 mph - 0.01 in   Overcast
2:53 PM 32.0 °F - 30.9 °F 96% 29.44 in 10.0 mi Calm Calm - N/A   Overcast
3:53 PM 32.0 °F 26.4 °F 32.0 °F 100% 29.43 in 10.0 mi NNE 5.8 mph - 0.01 in   Overcast
4:53 PM 32.0 °F - 32.0 °F 100% 29.42 in 10.0 mi Calm Calm - N/A   Overcast
5:53 PM 32.0 °F - 30.9 °F 96% 29.42 in 10.0 mi Calm Calm - N/A   Overcast
6:53 PM 30.0 °F 22.4 °F 30.0 °F 100% 29.43 in 10.0 mi South 8.1 mph - N/A   Overcast
6:56 PM 30.2 °F 21.9 °F 28.4 °F 93% 29.42 in 7.0 mi SSW 9.2 mph - N/A   Overcast
7:10 PM 28.4 °F 19.1 °F 28.4 °F 100% 29.42 in 3.0 mi WSW 10.4 mph - 0.00 in Snow Light Snow
7:53 PM 27.0 °F 19.5 °F 27.0 °F 100% 29.44 in 3.0 mi SW 6.9 mph - 0.00 in Snow Light Snow
8:02 PM 26.6 °F 20.0 °F 26.6 °F 100% 29.44 in 2.0 mi SSW 5.8 mph - 0.00 in Snow Light Snow
8:53 PM 26.1 °F 20.5 °F 25.0 °F 96% 29.46 in 2.5 mi WSW 4.6 mph - 0.00 in Snow Light Snow
9:00 PM 24.8 °F 19.1 °F 24.8 °F 100% 29.45 in 3.0 mi SW 4.6 mph - 0.00 in Snow Light Snow
9:03 PM 24.8 °F 20.5 °F 24.8 °F 100% 29.46 in 2.5 mi SW 3.5 mph - 0.00 in Snow Light Snow
9:09 PM 24.8 °F 17.9 °F 24.8 °F 100% 29.46 in 1.8 mi WSW 5.8 mph - 0.00 in Snow Light Snow
9:53 PM 24.1 °F 16.0 °F 23.0 °F 96% 29.48 in 1.5 mi WSW 6.9 mph - 0.00 in Snow Light Snow
10:36 PM 24.8 °F 11.1 °F 21.2 °F 86% 29.47 in 1.5 mi SSW 18.4 mph - 0.01 in Snow Light Snow
10:53 PM 24.1 °F 12.0 °F 21.0 °F 88% 29.48 in 1.5 mi South 13.8 mph - 0.01 in Snow Light Snow
11:07 PM 23.0 °F 9.2 °F 19.4 °F 86% 29.47 in 2.0 mi South 17.3 mph - 0.00 in Snow Light Snow
11:16 PM 23.0 °F 9.6 °F 19.4 °F 86% 29.47 in 4.0 mi South 16.1 mph - 0.00 in Snow Light Snow
11:53 PM 21.9 °F 8.2 °F 19.0 °F 89% 29.49 in 4.0 mi South 16.1 mph - 0.00 in Snow Light Snow